Location: Woodstock
(43.1330°N, 80.7500°W)
Time: 04:06:12
(UTC-04:00)

Daily predictions for brighter satellites

Satellite Brightness Start Highest point End
(mag) Time Altitude Azimuth Time Altitude Azimuth Time Altitude Azimuth
Cosmos 1346 3.7 00:04:06 53° WNW 00:04:06 53° WNW 00:06:53 10° N
Cosmos 1869 Rocket 4.3 00:04:37 36° ESE 00:04:56 36° E 00:09:04 10° NNE
ALOS 2 3.8 00:06:36 27° E 00:07:35 30° ENE 00:11:26 10° N
Nadezhda 1 Rocket 4.3 00:03:39 10° NNW 00:09:35 56° W 00:12:27 30° SSW
CZ-4C R/B 4.2 00:10:20 31° ENE 00:10:20 31° ENE 00:13:28 10° N
SL-16 R/B 2.9 00:05:51 10° NNW 00:11:20 47° ENE 00:13:40 31° ESE
Cosmos 1869 3.5 00:08:51 10° NNW 00:12:52 61° W 00:13:24 54° SW
Lacrosse 4 Rocket 2.8 00:09:06 10° NNW 00:13:07 33° NE 00:14:35 26° E
NOSS 3-1 (A) 3.9 00:08:46 10° SW 00:14:39 61° NW 00:21:14 10° NNE
COSMOS 2428 4.2 00:11:50 10° NW 00:16:22 25° WSW 00:18:35 20° SW
Cosmos 1455 3.2 00:18:02 10° NNW 00:21:32 35° W 00:21:56 34° WSW
Cosmos 468 4.5 00:16:11 10° NNW 00:21:33 85° ENE 00:22:57 51° SSE
ASTEX 1 4.3 00:20:02 10° NNE 00:24:26 32° E 00:24:59 31° ESE
Meteor 1-26 Rocket 4.5 00:20:16 10° N 00:25:47 59° ENE 00:27:26 42° SE
Cosmos 2297 Rocket 2.1 00:25:44 45° SSW 00:27:33 80° ESE 00:33:14 10° NNE
ERBS 4.0 00:30:25 26° ENE 00:30:25 26° ENE 00:32:06 10° NE
Cosmos 1709 Rocket 3.9 00:27:28 39° SSW 00:29:56 79° W 00:36:05 10° N
H-2A R/B 3.0 00:26:39 10° NNE 00:30:32 44° E 00:30:32 44° E
Cosmos 2221 Rocket 3.5 00:28:11 10° N 00:32:47 87° W 00:33:22 68° S
Cosmos 192 4.5 00:28:31 10° NNW 00:33:21 59° WSW 00:34:11 51° SSW
COS B Rocket 3.2 00:31:35 10° N 00:35:12 71° W 00:35:12 71° W
Cosmos 1703 Rocket 3.4 00:32:14 10° NNW 00:36:35 75° W 00:37:00 68° SW
GEOS 3 Rocket 3.5 00:35:41 52° SSE 00:36:58 80° SW 00:42:12 10° NW
Cosmos 2219 Rocket 3.2 00:32:03 10° NW 00:37:00 33° WSW 00:38:24 29° SW
ATLAS 2AS CENTAUR R/B 2.9 00:32:38 28° SSW 00:37:06 83° ESE 00:45:12 10° NE
COSMOS 2455 2.8 00:34:02 10° NNW 00:40:06 80° ENE 00:42:07 44° SE
CZ-2C R/B 3.9 00:37:26 10° NE 00:41:37 24° E 00:42:07 23° ESE
Okean 1-7 2.8 00:37:45 10° N 00:42:03 77° E 00:42:15 75° ESE
H-2A R/B 4.2 00:41:19 12° WSW 00:43:48 16° W 00:47:06 10° NW
Cosmos 2181 Rocket 4.2 00:42:19 10° NNW 00:48:36 63° W 00:50:50 40° SSW
Cosmos 1269 Rocket 4.1 00:50:06 10° NNW 00:55:21 61° WSW 00:56:14 53° SSW
Cosmos 389 Rocket 2.9 00:52:32 10° NNW 00:55:35 61° NNW 00:55:35 61° NNW
Geosat 4.1 00:51:48 10° NE 00:56:44 53° ESE 00:57:05 52° SE
Meteor 2-3 Rocket 3.7 00:57:40 53° SSE 00:59:01 72° E 01:04:45 10° NNE
ATLAS 3B R/B 2.6 00:52:56 10° NW 00:59:58 81° WSW 01:02:14 45° SSE
Cosmos 1933 4.4 00:56:29 10° NNW 01:00:10 34° W 01:00:15 34° W
Cosmos 2184 Rocket 3.9 00:59:55 49° S 01:01:43 80° E 01:07:56 10° N
USA 238 DEB 4.2 00:54:47 10° NNW 01:01:45 57° NE 01:06:14 23° ESE
USA 238 4.2 00:54:54 10° NNW 01:01:50 57° NE 01:06:22 22° ESE
Helios 1A Rocket 3.3 00:58:08 10° NNE 01:01:59 51° E 01:01:59 51° E
Cosmos 2237 Rocket 3.2 00:59:08 10° NW 01:04:04 31° WSW 01:05:04 29° WSW
FALCON 9 R/B 3.4 00:58:31 10° W 01:09:35 36° SSW 01:09:35 36° SSW
SL-08 ROCKET BODY 4.4 01:08:49 50° S 01:10:34 81° E 01:16:46 10° N
Cosmos 1892 3.3 01:11:42 49° ENE 01:11:42 49° ENE 01:14:54 10° NNE
NOSS 2-3 (E) 3.8 01:11:18 64° SSE 01:11:53 72° ESE 01:17:32 10° NE
CZ-4B R/B 2.5 01:17:43 41° WNW 01:17:43 41° WNW 01:20:24 10° NNW
H-2A ROCKET BODY 4.2 00:40:19 10° W 01:20:00 41° SSW 01:23:23 35° S
Cosmos 1782 3.3 01:20:09 10° N 01:23:58 49° ENE 01:23:58 49° ENE
Cosmos 1125 Rocket 4.5 01:22:54 28° WSW 01:25:03 41° WNW 01:30:05 10° N
Cosmos 1689 Rocket 3.9 01:26:12 30° WNW 01:26:12 30° WNW 01:28:20 10° NNW
Sich 1 Rocket 4.1 01:27:48 46° E 01:27:59 46° E 01:32:18 10° NNE
Cosmos 494 Rocket 4.4 01:23:10 10° NNW 01:28:22 57° ENE 01:29:54 41° ESE
USA 234 4.1 01:24:11 10° E 01:30:24 48° NNE 01:36:37 10° NW
Cosmos 1340 Rocket 2.8 01:32:25 75° N 01:32:25 75° N 01:36:04 10° N
Aureole 2 Rocket 3.7 01:29:14 10° NNW 01:31:09 35° NNW 01:31:09 35° NNW
SeaSat 1 4.3 01:38:15 17° WSW 01:38:15 17° WSW 01:41:16 10° WNW
NOSS 2-3 (C) 4.1 01:37:41 48° WSW 01:39:04 73° NW 01:44:53 10° NE
Cosmos 44 Rocket 3.4 01:39:15 58° SW 01:40:17 84° NW 01:45:34 10° NNE
Cosmos 1825 3.7 01:42:13 27° E 01:42:13 27° E 01:45:14 10° NNE
ALOS 2 4.0 01:44:00 26° W 01:44:00 26° W 01:47:36 10° NW
Cosmos 2227 Rocket 4.3 01:40:20 10° W 01:44:33 21° NW 01:48:48 10° N
Cosmos 1733 Rocket 3.1 01:46:04 64° WSW 01:46:21 66° W 01:50:49 10° N
Cosmos 2333 Rocket 4.4 01:47:02 10° W 01:48:28 11° W 01:49:11 11° WSW
Cosmos 1408 3.9 01:49:45 32° E 01:49:45 32° E 01:52:56 10° NNE
Lacrosse 4 Rocket 3.0 01:47:58 10° NW 01:50:55 26° W 01:50:55 26° W
Coronas F rocket 3.7 01:53:28 24° NNW 01:53:28 24° NNW 01:54:46 10° N
Cosmos 2263 Rocket 3.4 01:51:58 26° ESE 01:53:04 28° ESE 01:57:51 10° NE
SL-16 R/B 3.4 01:50:30 10° NW 01:55:10 27° WSW 01:55:32 26° WSW
Meteor 1-27 Rocket 3.8 01:49:41 10° N 01:55:35 75° E 01:57:22 46° SSE
Cosmos 2227 4.2 01:55:02 48° SW 01:56:35 75° WNW 02:02:17 10° NNE
BREEZE-M DEB (TANK) 2.6 01:52:07 10° WNW 01:57:18 59° WNW 01:57:18 59° WNW
NOSS 3-4 (A) 4.2 01:57:31 34° SE 01:58:52 38° ESE 02:04:49 10° NE
NOSS 3-4 (C) 4.2 01:57:37 34° SE 01:58:57 38° ESE 02:04:54 10° NE
Cosmos 1378 Rocket 3.5 01:55:13 10° N 01:59:37 69° E 02:00:01 64° ESE
NOSS 3-2 (A) 4.4 01:53:09 10° NNW 02:00:30 62° NE 02:08:24 10° SE
Cosmos 1356 Rocket 3.6 02:03:04 56° WNW 02:03:04 56° WNW 02:07:03 10° N
Okean 3 3.8 01:59:00 10° N 02:03:15 56° E 02:03:49 52° ESE
Cosmos 1862 3.3 02:06:05 69° E 02:06:05 69° E 02:10:03 10° NNE
Nadezhda 3 Rocket 4.1 02:01:24 10° NNW 02:07:30 62° W 02:09:17 44° SSW
CZ-3 Stage 3 4.5 01:52:49 10° W 02:09:53 33° SSW 02:09:53 33° SSW
Okean 2 Rocket 3.5 02:10:09 46° ESE 02:10:48 51° E 02:15:11 10° NNE
Cosmos 2297 Rocket 4.4 02:08:25 10° W 02:12:18 19° NW 02:16:13 10° N
Cosmos 1238 Rocket 2.8 02:08:47 10° NNW 02:12:49 66° WNW 02:12:49 66° WNW
CZ-2C R/B 3.3 02:11:35 49° SSW 02:13:06 70° WSW 02:18:48 10° NNW
CZ-4C R/B 2.9 02:12:54 10° NW 02:20:00 85° NE 02:26:09 18° SE
Cosmos 1782 Rocket 3.4 02:19:57 68° SSE 02:20:25 77° E 02:24:49 10° N
Cosmos 1943 3.2 02:15:36 10° NNW 02:21:20 84° ENE 02:23:36 38° SSE
CZ-2C R/B 3.3 02:17:07 10° N 02:22:05 44° WNW 02:23:38 34° WSW
Cosmos 1727 Rocket 4.5 02:17:14 10° N 02:23:23 55° ENE 02:26:41 27° SE
Cosmos 2251 Rocket 4.5 02:21:20 10° NW 02:25:59 31° W 02:26:18 31° WSW
Cosmos 1606 3.3 02:24:42 10° NNW 02:28:05 44° WNW 02:28:05 44° WNW
Cosmos 1603 4.3 02:23:37 10° NW 02:28:47 37° WSW 02:29:23 36° WSW
Landsat 4 4.4 02:33:45 40° ESE 02:34:34 48° ENE 02:38:14 10° N
Cosmos 1867 3.9 02:33:16 10° NNW 02:38:44 64° NE 02:43:21 14° SE
PSLV R/B 3.5 02:35:38 10° NNE 02:39:51 71° ESE 02:40:32 58° SSE
Cosmos 1975 Rocket 3.1 02:38:22 10° NNW 02:42:43 60° W 02:43:12 56° SW
BREEZE-M DEB (TANK) 4.0 02:30:05 10° WSW 02:45:48 72° NNW 02:49:56 10° ENE
Cosmos 1242 Rocket 3.2 02:43:01 10° N 02:46:24 46° ENE 02:47:00 41° ESE
Cosmos 1607 4.2 02:41:09 10° NW 02:47:00 47° WSW 02:48:30 39° SSW
ATLAS 3B R/B 4.4 02:46:06 10° WNW 02:49:26 14° WSW 02:49:26 14° WSW
Cosmos 921 Rocket 4.2 02:51:16 26° W 02:52:11 28° WNW 02:55:51 10° N
USA 238 DEB 4.4 02:46:16 10° NW 02:52:22 33° WSW 02:53:37 31° SW
USA 238 4.4 02:46:22 10° NW 02:52:30 33° WSW 02:53:45 31° SW
Cosmos 1624 Rocket 4.4 02:52:41 36° SSE 02:54:31 55° ESE 02:59:38 10° NNE
Cosmos 1536 Rocket 4.0 02:50:15 10° N 02:54:34 56° E 02:56:23 32° SE
Cosmos 44 4.2 02:53:21 28° WSW 02:55:50 48° NW 03:01:08 10° NNE
NPP 3.9 02:59:01 10° NNE 03:04:23 64° ESE 03:06:51 32° S
SL-16 R/B 4.1 03:03:19 10° SE 03:08:45 33° ENE 03:14:11 10° N
Cosmos 2151 Rocket 3.5 03:07:47 46° S 03:09:06 87° WNW 03:13:35 10° N
BREEZE-M TANK 1.7 03:05:58 10° WNW 03:09:40 85° N 03:12:11 10° ESE
Iridium 4 Rocket 3.2 03:06:01 10° N 03:10:36 83° W 03:12:32 37° S
Cosmos 1812 3.6 03:08:51 10° N 03:12:38 47° ENE 03:14:38 24° SE
USA 234 3.2 03:06:50 10° SE 03:13:17 61° SW 03:19:46 10° NW
Cosmos 1184 Rocket 3.2 03:13:16 50° W 03:13:26 50° WNW 03:16:45 10° N
ARIANE 5 R/B 4.1 03:10:30 10° NE 03:14:41 26° E 03:18:19 12° SSE
Abrixas rocket 2.8 03:15:16 43° SE 03:15:16 43° SE 03:18:14 10° ENE
RESURS DK-1 2.3 03:14:33 48° SSW 03:15:39 88° ESE 03:19:51 10° NNE
Cosmos 1825 3.9 03:17:09 19° W 03:17:38 20° WNW 03:20:30 10° NNW
ERS-2 2.3 03:14:44 10° NNE 03:18:26 67° ESE 03:19:28 43° SSE
CBERS-1 4.0 03:17:35 10° NNE 03:22:45 78° ESE 03:25:21 30° S
Okean 1 Rocket 3.8 03:23:13 24° SSE 03:25:35 49° E 03:29:54 10° NNE
NOSS 3-2 (C) 4.1 03:19:08 10° NW 03:26:30 58° WSW 03:34:21 10° SSE
CENTAUR R/B 3.8 03:20:59 10° NNW 03:28:34 56° NE 03:36:40 10° SE
CZ-2D R/B 3.8 03:24:51 10° NE 03:29:31 28° E 03:34:12 10° SSE
Cosmos 1821 Rocket 4.4 03:26:35 18° SSE 03:31:21 61° E 03:37:39 10° NNE
GP-B 3.1 03:30:17 10° N 03:34:46 85° E 03:37:07 28° S
Cosmos 1844 Rocket 3.6 03:31:31 19° SSE 03:35:10 42° ESE 03:40:29 10° NE
SL-24 DEB 4.2 03:31:34 10° N 03:36:12 74° W 03:38:27 30° SSW
Cosmos 2263 Rocket 2.9 03:33:39 24° WSW 03:36:46 45° WNW 03:42:13 10° NNE
Meteor 1-25 Rocket 4.2 03:35:22 27° SSW 03:38:35 78° W 03:44:23 10° N
COSMOS 2406 3.2 03:34:40 10° NNW 03:40:29 88° WSW 03:46:15 10° SSE
Cosmos 1190 Rocket 4.0 03:38:30 10° NNW 03:43:41 64° WSW 03:47:22 19° S
SL-08 R/B 3.7 03:41:41 28° SSW 03:44:02 50° W 03:48:50 10° NNW
NOSS 3-4 (A) 4.3 03:44:56 17° WSW 03:49:39 46° NW 03:56:02 10° NNE
NOSS 3-4 (C) 4.3 03:45:02 17° WSW 03:49:44 47° NW 03:56:07 10° NNE
IRS-1C 4.1 03:44:41 10° N 03:50:02 75° WNW 03:53:23 23° SSW
Cosmos 2056 Rocket 3.9 03:48:43 25° SW 03:51:39 52° WNW 03:56:48 10° N
Cosmos 2278 Rocket 3.7 03:46:54 10° SSE 03:51:40 29° ESE 03:56:27 10° NE
Cosmos 1140 Rocket 4.4 03:49:57 10° N 03:54:57 49° ENE 03:59:55 10° SE
Spot 4 Rocket 4.0 03:50:29 10° NNE 03:55:40 89° WNW 03:59:14 21° SSW
UNK 4.3 03:53:07 10° SSE 03:57:38 59° ENE 04:02:13 10° N
OPS 6431 4.4 03:54:49 10° NW 03:57:52 88° WSW 04:00:49 10° SE
Cosmos 1602 4.2 03:55:28 18° SSE 03:58:11 56° E 04:01:58 10° NNE
Tiangong 1 1.6 03:59:17 34° S 03:59:17 34° S 04:01:52 10° SE
Cosmos 1025 Rocket 3.7 03:56:28 10° N 04:00:41 55° E 04:04:55 10° SSE
Cosmos 1535 Rocket 4.5 03:56:38 20° SSW 04:01:06 74° W 04:07:23 10° N
Cosmos 407 Rocket 3.6 03:56:25 10° NNW 04:01:27 55° WSW 04:05:49 14° S
ATLAS 5 CENTAUR R/B 4.1 03:56:05 10° NNW 04:01:28 36° NE 04:07:13 10° ESE
AQUA 4.5 03:58:49 10° N 04:03:18 42° WNW 04:06:04 21° SW
Cosmos 1809 Rocket 4.4 04:00:04 18° SSW 04:04:40 77° W 04:10:50 10° N
Cosmos 676 Rocket 3.9 04:01:45 10° NNW 04:06:55 67° WSW 04:12:01 10° S
Cosmos 1536 3.5 04:04:07 13° SSE 04:07:39 52° E 04:11:37 10° NNE
Meteor 2-4 Rocket 4.4 04:02:32 10° N 04:07:50 52° ENE 04:13:02 10° SSE
CZ-4C R/B 4.0 04:02:38 10° WNW 04:08:03 23° WSW 04:11:13 17° SW
SL-27 R/B 2.9 04:07:58 10° NNW 04:11:29 45° WSW 04:13:49 19° S
NOSS 2-2 (C) 4.4 04:09:51 16° S 04:12:47 42° ESE 04:17:12 10° NE
IRS-1D 3.5 04:11:30 10° NNE 04:16:39 90° ESE 04:20:59 14° SSW
USA 161 2.2 04:16:08 27° SW 04:16:57 33° W 04:19:37 10° NNW
Cosmos 724 4.4 04:11:54 10° NW 04:17:56 62° WSW 04:24:01 10° SSE
Cosmos 1544 Rocket 4.4 04:13:43 10° SSE 04:17:59 49° E 04:22:14 10° NNE
UNKNOWN OBJECT B 3.6 04:14:56 10° NNE 04:18:56 52° E 04:22:56 10° S
Gbstr 26 Del rocket 3.1 04:16:43 20° SSW 04:19:06 48° SE 04:22:43 10° ENE
Resurs 1-4 Rocket 2.2 04:15:55 10° NNE 04:21:16 81° ESE 04:26:22 11° S
Meteor 2-16 Rocket 4.5 04:15:38 12° S 04:21:20 84° W 04:27:31 10° N
OTV 4 2.2 04:22:22 16° S 04:22:22 16° S 04:23:44 10° SSE
Meteor 1-19 Rocket 4.3 04:23:04 10° NNW 04:28:52 76° W 04:34:41 10° S
MOS 1-B 4.4 04:28:05 10° NNE 04:33:55 88° ESE 04:39:45 10° SSW
Cosmos 1954 Rocket 4.2 04:30:36 10° NNW 04:35:33 47° WSW 04:40:29 10° S
BREEZE-M DEB (TANK) 4.3 04:25:11 10° WNW 04:37:27 51° N 04:40:59 10° E
Cosmos 1892 Rocket 3.5 04:33:55 10° N 04:38:18 86° W 04:42:37 10° S
NOSS 2-2 (E) 3.7 04:35:27 14° SSW 04:39:02 82° SE 04:44:01 10° NE
EO 1 Del DPAF 3.7 04:36:44 10° S 04:40:25 41° W 04:44:09 10° NNW
Meteor 1-11 Rocket 4.0 04:35:08 12° SSW 04:40:37 59° WNW 04:46:32 10° N
Cosmos 1633 2.5 04:37:17 12° SSW 04:40:37 72° W 04:44:15 10° N
Cosmos 1447 Rocket 4.5 04:36:36 10° N 04:42:49 88° W 04:48:57 10° S
SME Rocket 3.1 04:41:22 10° S 04:45:00 48° WSW 04:48:54 10° NNW
Cosmos 1934 Rocket 4.5 04:39:43 12° SSW 04:45:15 44° WNW 04:51:09 10° N
USA 129 1.5 04:49:23 10° S 04:51:31 75° WSW 04:53:38 10° NNW
Abrixas rocket 3.2 04:48:54 10° W 04:52:08 44° NNW 04:55:22 10° ENE
SL-16 R/B 2.9 04:46:17 10° S 04:52:12 44° W 04:58:08 10° NNW
Cosmos 1356 3.5 04:48:57 10° SSW 04:52:29 70° W 04:56:03 10° N
Cosmos 1400 Rocket 2.8 04:49:57 10° SSW 04:53:48 68° WNW 04:57:44 10° N
ARIANE 5 R/B 3.2 04:49:18 10° N 04:53:53 37° WNW 04:58:28 10° SW
CZ-2C R/B 3.8 04:50:56 10° SSE 04:55:41 87° WSW 05:00:30 10° NNW
Cosmos 1833 Rocket 4.3 04:52:19 10° NNW 04:57:35 40° ENE 05:02:49 10° SE
Cosmos 614 Rocket 3.9 04:53:18 10° NNW 04:58:28 71° WSW 05:03:33 10° S
COSMOS 2487 2.9 04:55:57 10° NNW 04:59:24 43° WSW 05:02:50 10° S
CZ-4B R/B 3.9 04:56:58 10° NNE 05:01:27 55° E 05:05:52 10° S
Okean O Rocket 1.6 04:57:45 10° NNE 05:02:07 88° ESE 05:06:28 10° SSW
Thor Agena Rocket 3.7 04:56:58 10° SSE 05:02:10 81° ENE 05:07:19 10° NNW
PAYLOAD B 4.5 05:00:44 10° NNE 05:06:21 77° ESE 05:11:56 10° S
CZ-2D R/B 2.8 05:04:38 10° N 05:09:40 40° WNW 05:14:44 10° SW
Cosmos 1602 Rocket 3.8 05:05:47 10° N 05:10:07 75° E 05:14:27 10° SSE
